CGFOX CYXC-CYYC

Flight info

Callsign CGFOX
Flight time 0h 49m
Altitude 31000
Route KOOTE1 TULOB IGVEP7
Aircraft P180/L-SBDFGM3RWXY/LB1

Departure

Time 2026-04-25 00:11
Airport Cranbrook/Canadian Rockies International Airport (CYXC)

Arrival

Time 2026-04-25 01:01
Airport Calgary International Airport (CYYC)
Time Latitude Longitude Altitude Speed Heading
2026-04-24 23:44 49.61023 -115.78544 3056 ft 0 kts 264°
2026-04-25 00:07 49.61020 -115.78552 3060 ft 3 kts 229°
2026-04-25 00:08 49.60998 -115.78538 3059 ft 6 kts 140°
2026-04-25 00:08 49.60956 -115.78477 3061 ft 9 kts 133°
2026-04-25 00:08 49.60898 -115.78389 3061 ft 14 kts 134°
2026-04-25 00:08 49.60841 -115.78293 3064 ft 12 kts 133°
2026-04-25 00:09 49.60774 -115.78207 3063 ft 11 kts 159°
2026-04-25 00:09 49.60686 -115.78200 3068 ft 14 kts 180°
2026-04-25 00:09 49.60576 -115.78200 3073 ft 18 kts 180°
2026-04-25 00:09 49.60440 -115.78196 3076 ft 21 kts 179°
2026-04-25 00:10 49.60285 -115.78193 3078 ft 18 kts 179°
2026-04-25 00:10 49.60190 -115.78155 3079 ft 11 kts 146°
2026-04-25 00:10 49.60166 -115.78187 3083 ft 7 kts 316°
2026-04-25 00:10 49.60221 -115.78188 3079 ft 14 kts 360°
2026-04-25 00:11 49.60441 -115.78191 3073 ft 63 kts 359°
2026-04-25 00:11 49.60830 -115.78198 3063 ft 103 kts 359°
2026-04-25 00:11 49.61953 -115.78224 3418 ft 133 kts 359°
2026-04-25 00:11 49.62897 -115.78256 3960 ft 136 kts 360°
2026-04-25 00:12 49.63887 -115.78282 4470 ft 149 kts
2026-04-25 00:12 49.64932 -115.78287 5231 ft 155 kts 357°
2026-04-25 00:12 49.65643 -115.78313 5780 ft 152 kts 357°
2026-04-25 00:12 49.66700 -115.78333 6618 ft 150 kts 359°
2026-04-25 00:13 49.67743 -115.78359 7330 ft 154 kts 358°
2026-04-25 00:13 49.68814 -115.78383 8049 ft 154 kts 358°
2026-04-25 00:13 49.69900 -115.78406 8715 ft 157 kts 358°
2026-04-25 00:13 49.70999 -115.78427 9398 ft 159 kts 358°
2026-04-25 00:14 49.72106 -115.78459 10136 ft 159 kts 358°
2026-04-25 00:14 49.73218 -115.78480 10873 ft 160 kts 357°
2026-04-25 00:14 49.74327 -115.78506 11579 ft 159 kts 357°
2026-04-25 00:14 49.75440 -115.78530 12238 ft 160 kts 356°
2026-04-25 00:15 49.76552 -115.78555 12887 ft 160 kts 356°
2026-04-25 00:15 49.77664 -115.78584 13521 ft 160 kts 357°
2026-04-25 00:15 49.78780 -115.78607 14119 ft 161 kts 357°
2026-04-25 00:15 49.79905 -115.78632 14699 ft 162 kts 358°
2026-04-25 00:16 49.81037 -115.78658 15261 ft 163 kts 358°
2026-04-25 00:16 49.82172 -115.78685 15799 ft 164 kts 359°
2026-04-25 00:16 49.83313 -115.78710 16336 ft 164 kts 359°
2026-04-25 00:16 49.84460 -115.78737 16888 ft 165 kts 359°
2026-04-25 00:17 49.85611 -115.78765 17415 ft 166 kts 359°
2026-04-25 00:17 49.86765 -115.78790 17926 ft 166 kts 360°
2026-04-25 00:17 49.87927 -115.78815 18413 ft 167 kts
2026-04-25 00:17 49.89056 -115.78458 18914 ft 168 kts 24°
2026-04-25 00:18 49.90124 -115.77685 19424 ft 170 kts 20°
2026-04-25 00:18 49.91222 -115.76986 19922 ft 171 kts 20°
2026-04-25 00:18 49.92318 -115.76248 20412 ft 172 kts 21°
2026-04-25 00:18 49.93421 -115.75507 20893 ft 173 kts 20°
2026-04-25 00:19 49.94535 -115.74756 21365 ft 175 kts 20°
2026-04-25 00:19 49.95657 -115.74000 21852 ft 176 kts 20°
2026-04-25 00:19 49.96788 -115.73240 22340 ft 178 kts 20°
2026-04-25 00:19 49.97925 -115.72473 22827 ft 179 kts 20°
2026-04-25 00:20 49.99059 -115.71708 23313 ft 180 kts 20°
2026-04-25 00:20 50.00215 -115.70929 23808 ft 182 kts 20°
2026-04-25 00:20 50.01380 -115.70144 24307 ft 183 kts 20°
2026-04-25 00:20 50.02553 -115.69348 24797 ft 185 kts 20°
2026-04-25 00:21 50.03734 -115.68551 25296 ft 185 kts 19°
2026-04-25 00:21 50.04919 -115.67750 25778 ft 187 kts 19°
2026-04-25 00:21 50.06120 -115.66939 26264 ft 189 kts 20°
2026-04-25 00:21 50.07328 -115.66120 26755 ft 190 kts 20°
2026-04-25 00:22 50.08541 -115.65298 27246 ft 191 kts 20°
2026-04-25 00:22 50.09764 -115.64470 27725 ft 193 kts 20°
2026-04-25 00:22 50.10998 -115.63633 28223 ft 194 kts 20°
2026-04-25 00:22 50.12234 -115.62794 28748 ft 193 kts 20°
2026-04-25 00:23 50.13464 -115.61960 29268 ft 193 kts 20°
2026-04-25 00:23 50.14692 -115.61124 29767 ft 192 kts 20°
2026-04-25 00:23 50.15916 -115.60284 30146 ft 198 kts 22°
2026-04-25 00:23 50.17146 -115.59044 30132 ft 223 kts 34°
2026-04-25 00:24 50.18286 -115.57250 30289 ft 240 kts 46°
2026-04-25 00:24 50.19319 -115.55194 30720 ft 240 kts 45°
2026-04-25 00:24 50.20381 -115.53170 31037 ft 245 kts 45°
2026-04-25 00:24 50.21482 -115.51028 31060 ft 262 kts 46°
2026-04-25 00:25 50.22653 -115.48725 31066 ft 279 kts 46°
2026-04-25 00:25 50.23901 -115.46293 31059 ft 294 kts 46°
2026-04-25 00:25 50.25215 -115.43734 31053 ft 309 kts 47°
2026-04-25 00:25 50.26580 -115.41058 31051 ft 321 kts 47°
2026-04-25 00:26 50.28000 -115.38274 30906 ft 336 kts 47°
2026-04-25 00:26 50.29497 -115.35335 30270 ft 349 kts 47°
2026-04-25 00:26 50.31011 -115.32366 29598 ft 350 kts 48°
2026-04-25 00:26 50.32533 -115.29375 28908 ft 352 kts 48°
2026-04-25 00:27 50.34060 -115.26368 28212 ft 353 kts 48°
2026-04-25 00:27 50.35584 -115.23363 27517 ft 352 kts 48°
2026-04-25 00:27 50.37109 -115.20366 26819 ft 351 kts 48°
2026-04-25 00:27 50.38620 -115.17371 26120 ft 350 kts 48°
2026-04-25 00:28 50.40129 -115.14388 25423 ft 348 kts 48°
2026-04-25 00:28 50.41631 -115.11426 24724 ft 346 kts 48°
2026-04-25 00:28 50.43121 -115.08473 24028 ft 346 kts 49°
2026-04-25 00:28 50.44615 -115.05499 23333 ft 347 kts 49°
2026-04-25 00:29 50.46119 -115.02530 22630 ft 348 kts 48°
2026-04-25 00:29 50.47613 -114.99558 21934 ft 347 kts 49°
2026-04-25 00:29 50.49102 -114.96582 21235 ft 345 kts 49°
2026-04-25 00:29 50.50582 -114.93632 20540 ft 343 kts 49°
2026-04-25 00:30 50.52055 -114.90699 19839 ft 340 kts 49°
2026-04-25 00:30 50.53515 -114.87794 19139 ft 337 kts 49°
2026-04-25 00:30 50.54957 -114.84909 18444 ft 334 kts 49°
2026-04-25 00:30 50.56381 -114.82042 17747 ft 332 kts 49°
2026-04-25 00:31 50.57814 -114.79197 17048 ft 331 kts 48°
2026-04-25 00:31 50.59279 -114.76455 16347 ft 324 kts 40°
2026-04-25 00:31 50.61136 -114.74621 15632 ft 310 kts 22°
2026-04-25 00:31 50.63018 -114.73053 14936 ft 303 kts 26°
2026-04-25 00:32 50.64768 -114.71252 14282 ft 296 kts 29°
2026-04-25 00:32 50.66454 -114.69589 13931 ft 277 kts 24°
2026-04-25 00:32 50.68115 -114.68237 13581 ft 263 kts 22°
2026-04-25 00:32 50.69661 -114.66851 13240 ft 254 kts 24°
2026-04-25 00:33 50.71115 -114.65315 12945 ft 252 kts 34°
2026-04-25 00:33 50.72287 -114.63301 12737 ft 244 kts 39°
2026-04-25 00:33 50.73438 -114.61399 12517 ft 235 kts 36°
2026-04-25 00:33 50.74585 -114.59614 12295 ft 229 kts 36°
2026-04-25 00:34 50.75686 -114.57816 12059 ft 227 kts 36°
2026-04-25 00:34 50.76813 -114.56085 11935 ft 221 kts 28°
2026-04-25 00:34 50.78089 -114.54858 11862 ft 210 kts 17°
2026-04-25 00:34 50.79378 -114.53812 11829 ft 214 kts 29°
2026-04-25 00:35 50.80334 -114.51931 11819 ft 227 kts 51°
2026-04-25 00:35 50.81004 -114.49621 11641 ft 231 kts 52°
2026-04-25 00:35 50.81987 -114.47694 11343 ft 223 kts 33°
2026-04-25 00:35 50.83131 -114.45987 11042 ft 230 kts 35°
2026-04-25 00:36 50.84256 -114.44190 10869 ft 229 kts 35°
2026-04-25 00:36 50.85408 -114.42437 10589 ft 230 kts 34°
2026-04-25 00:36 50.86577 -114.40679 10276 ft 233 kts 34°
2026-04-25 00:36 50.87748 -114.38897 10000 ft 234 kts 35°
2026-04-25 00:37 50.88913 -114.37110 9754 ft 233 kts 35°
2026-04-25 00:37 50.90067 -114.35335 9514 ft 230 kts 36°
2026-04-25 00:37 50.90998 -114.33219 9221 ft 241 kts 53°
2026-04-25 00:37 50.91533 -114.30623 9003 ft 251 kts 71°
2026-04-25 00:38 50.91594 -114.27858 8984 ft 252 kts 83°
2026-04-25 00:38 50.91503 -114.25095 8769 ft 252 kts 83°
2026-04-25 00:38 50.91444 -114.22303 8483 ft 255 kts 82°
2026-04-25 00:38 50.91379 -114.19524 8202 ft 248 kts 83°
2026-04-25 00:39 50.91293 -114.16854 7862 ft 238 kts 83°
2026-04-25 00:39 50.91290 -114.14307 7495 ft 227 kts 78°
2026-04-25 00:39 50.91298 -114.11853 7243 ft 216 kts 79°
2026-04-25 00:39 50.91281 -114.09566 7047 ft 205 kts 79°
2026-04-25 00:40 50.91280 -114.07365 6856 ft 195 kts 78°
2026-04-25 00:40 50.91473 -114.05377 6667 ft 170 kts 53°
2026-04-25 00:40 50.92043 -114.03895 6512 ft 142 kts 36°
2026-04-25 00:40 50.92714 -114.02960 6383 ft 121 kts 20°
2026-04-25 00:41 50.93462 -114.02389 6265 ft 119 kts
2026-04-25 00:41 50.94256 -114.02142 6150 ft 115 kts 357°
2026-04-25 00:41 50.95058 -114.02159 6039 ft 116 kts 354°
2026-04-25 00:41 50.95869 -114.02148 5927 ft 117 kts 354°
2026-04-25 00:42 50.96651 -114.02142 5807 ft 101 kts 354°
2026-04-25 00:42 50.97314 -114.02141 5709 ft 95 kts 353°
2026-04-25 00:42 50.97989 -114.02141 5620 ft 100 kts 354°
2026-04-25 00:42 50.98702 -114.02145 5528 ft 106 kts 354°
2026-04-25 00:43 50.99432 -114.02153 5423 ft 101 kts 353°
2026-04-25 00:43 51.00141 -114.02151 5333 ft 104 kts 355°
2026-04-25 00:43 51.00881 -114.02144 5189 ft 108 kts 353°
2026-04-25 00:43 51.01638 -114.02143 5044 ft 110 kts 354°
2026-04-25 00:44 51.02400 -114.02145 4900 ft 109 kts 354°
2026-04-25 00:44 51.03165 -114.02139 4762 ft 111 kts 355°
2026-04-25 00:44 51.03935 -114.02144 4656 ft 110 kts 354°
2026-04-25 00:44 51.04701 -114.02142 4516 ft 110 kts 355°
2026-04-25 00:45 51.05471 -114.02146 4363 ft 112 kts 355°
2026-04-25 00:45 51.06263 -114.02137 4226 ft 116 kts 355°
2026-04-25 00:45 51.07065 -114.02124 4068 ft 117 kts 355°
2026-04-25 00:45 51.07843 -114.02183 3935 ft 106 kts 356°
2026-04-25 00:46 51.08644 -114.02035 4257 ft 128 kts
2026-04-25 00:46 51.09662 -114.01923 4749 ft 153 kts 358°
2026-04-25 00:46 51.11319 -114.00467 6901 ft 156 kts 44°
2026-04-25 00:47 51.11969 -113.98930 7003 ft 183 kts 42°
2026-04-25 00:47 51.12697 -113.97245 7015 ft 186 kts 43°
2026-04-25 00:47 51.13415 -113.95545 7009 ft 185 kts 43°
2026-04-25 00:47 51.14136 -113.93849 7008 ft 185 kts 43°
2026-04-25 00:48 51.14859 -113.92145 7011 ft 186 kts 43°
2026-04-25 00:48 51.15586 -113.90433 7008 ft 187 kts 43°
2026-04-25 00:48 51.16311 -113.88720 7003 ft 187 kts 44°
2026-04-25 00:48 51.17035 -113.87012 7002 ft 185 kts 43°
2026-04-25 00:49 51.17427 -113.84965 7000 ft 215 kts 83°
2026-04-25 00:49 51.16751 -113.82717 6989 ft 241 kts 130°
2026-04-25 00:49 51.15266 -113.81447 6995 ft 245 kts 162°
2026-04-25 00:49 51.13641 -113.80623 7000 ft 244 kts 163°
2026-04-25 00:50 51.12000 -113.79994 6997 ft 241 kts 184°
2026-04-25 00:50 51.10436 -113.80640 6996 ft 229 kts 213°
2026-04-25 00:50 51.08942 -113.81578 6998 ft 233 kts 206°
2026-04-25 00:50 51.07364 -113.82260 6983 ft 237 kts 201°
2026-04-25 00:51 51.05749 -113.82886 6919 ft 240 kts 201°
2026-04-25 00:51 51.04127 -113.83565 6827 ft 243 kts 202°
2026-04-25 00:51 51.02488 -113.84268 6707 ft 244 kts 202°
2026-04-25 00:51 51.00841 -113.84969 6584 ft 246 kts 202°
2026-04-25 00:52 50.99186 -113.85660 6506 ft 244 kts 202°
2026-04-25 00:52 50.97582 -113.86329 6507 ft 240 kts 202°
2026-04-25 00:52 50.95987 -113.87007 6497 ft 236 kts 202°
2026-04-25 00:52 50.94402 -113.87675 6419 ft 238 kts 202°
2026-04-25 00:53 50.92921 -113.88758 6285 ft 226 kts 229°
2026-04-25 00:53 50.91911 -113.90518 6161 ft 213 kts 249°
2026-04-25 00:53 50.91376 -113.92606 6037 ft 199 kts 269°
2026-04-25 00:53 50.91286 -113.94697 6008 ft 183 kts 282°
2026-04-25 00:54 50.91290 -113.96674 6004 ft 176 kts 281°
2026-04-25 00:54 50.91436 -113.98494 6000 ft 158 kts 300°
2026-04-25 00:54 50.91937 -113.99980 5997 ft 149 kts 313°
2026-04-25 00:54 50.92646 -114.01113 5991 ft 142 kts 327°
2026-04-25 00:55 50.93500 -114.01838 5991 ft 138 kts 340°
2026-04-25 00:55 50.94428 -114.02145 5993 ft 132 kts 352°
2026-04-25 00:55 50.95257 -114.02116 5992 ft 117 kts 355°
2026-04-25 00:55 50.96044 -114.02141 5992 ft 110 kts 354°
2026-04-25 00:56 50.96800 -114.02143 5992 ft 108 kts 354°
2026-04-25 00:56 50.97543 -114.02143 5991 ft 106 kts 354°
2026-04-25 00:56 50.98275 -114.02148 5990 ft 105 kts 354°
2026-04-25 00:56 50.99005 -114.02137 5993 ft 106 kts 355°
2026-04-25 00:57 50.99775 -114.02141 5743 ft 112 kts 354°
2026-04-25 00:57 51.00550 -114.02144 5450 ft 112 kts 354°
2026-04-25 00:57 51.01306 -114.02141 5165 ft 104 kts 354°
2026-04-25 00:57 51.02003 -114.02143 4992 ft 102 kts 354°
2026-04-25 00:58 51.02735 -114.02142 4859 ft 107 kts 354°
2026-04-25 00:58 51.03484 -114.02138 4736 ft 108 kts 355°
2026-04-25 00:58 51.04236 -114.02145 4610 ft 109 kts 354°
2026-04-25 00:58 51.04989 -114.02144 4490 ft 108 kts 354°
2026-04-25 00:59 51.05749 -114.02142 4349 ft 110 kts 354°
2026-04-25 00:59 51.06525 -114.02145 4204 ft 113 kts 357°
2026-04-25 00:59 51.07319 -114.02106 4052 ft 115 kts 357°
2026-04-25 00:59 51.08090 -114.02110 3934 ft 107 kts 354°
2026-04-25 01:00 51.08575 -114.02135 3849 ft 104 kts 351°
2026-04-25 01:00 51.09274 -114.02148 3715 ft 101 kts
2026-04-25 01:00 51.09968 -114.02141 3566 ft 97 kts
2026-04-25 01:00 51.10530 -114.02137 3551 ft 64 kts 360°
2026-04-25 01:01 51.10912 -114.02138 3556 ft 49 kts 360°
2026-04-25 01:01 51.11229 -114.02136 3555 ft 40 kts
2026-04-25 01:01 51.11411 -114.02150 3551 ft 14 kts 329°
2026-04-25 01:01 51.11430 -114.02263 3552 ft 11 kts 269°
2026-04-25 01:02 51.11431 -114.02388 3553 ft 12 kts 281°
2026-04-25 01:02 51.11499 -114.02419 3553 ft 11 kts
2026-04-25 01:02 51.11574 -114.02419 3553 ft 11 kts 360°
2026-04-25 01:02 51.11654 -114.02419 3553 ft 12 kts 360°
2026-04-25 01:03 51.11737 -114.02419 3553 ft 12 kts
2026-04-25 01:03 51.11826 -114.02418 3553 ft 13 kts
2026-04-25 01:03 51.11918 -114.02419 3553 ft 13 kts
2026-04-25 01:03 51.12014 -114.02419 3553 ft 14 kts 360°